| time (UTC) | temp F | wind direction | speed knots | gust knots | rain 1hr in | rain 24hr in | rain mn in | humidity % | barometer mb |
| 20260508100457 | 44 | 247 | 1.7 | 5.2 | 0.00 | 0.49 | 0.00 | 85 | 1002.4 |
| 20260508095458 | 42 | 192 | 0.0 | 2.6 | 0.00 | 0.49 | 0.00 | 92 | 1002.2 |
| 20260508094958 | 41 | 339 | 0.0 | 1.7 | 0.00 | 0.49 | 0.00 | 92 | 1002.3 |
| 20260508094457 | 41 | 91 | 0.0 | 2.6 | 0.00 | 0.49 | 0.00 | 93 | 1002.1 |
| 20260508093956 | 41 | 63 | 0.0 | 2.6 | 0.00 | 0.49 | 0.00 | 93 | 1002.0 |
| 20260508093457 | 41 | 304 | 0.9 | 3.5 | 0.00 | 0.49 | 0.00 | 94 | 1002.2 |
| 20260508092956 | 41 | 304 | 1.7 | 3.5 | 0.00 | 0.49 | 0.00 | 95 | 1002.0 |
| 20260508092458 | 41 | 269 | 1.7 | 3.5 | 0.00 | 0.49 | 0.00 | 96 | 1002.0 |
| 20260508091956 | 40 | 208 | 0.0 | 2.6 | 0.00 | 0.49 | 0.00 | 96 | 1002.1 |
| 20260508091454 | 40 | 161 | 0.0 | 2.6 | 0.00 | 0.49 | 0.00 | 96 | 1001.9 |
| 20260508090953 | 40 | 154 | 1.7 | 2.6 | 0.00 | 0.49 | 0.00 | 96 | 1001.9 |
| 20260508090453 | 40 | 133 | 1.7 | 5.2 | 0.00 | 0.49 | 0.00 | 96 | 1002.1 |
| 20260508085953 | 40 | 305 | 0.0 | 5.2 | 0.00 | 0.49 | 0.00 | 96 | 1002.1 |
| 20260508084952 | 40 | 179 | 0.9 | 2.6 | 0.00 | 0.49 | 0.00 | 95 | 1002.2 |
| 20260508084452 | 41 | 106 | 1.7 | 2.6 | 0.00 | 0.49 | 0.00 | 95 | 1002.2 |
| 20260508083947 | 40 | 222 | 0.9 | 1.7 | 0.00 | 0.49 | 0.00 | 95 | 1002.1 |
| 20260508083449 | 41 | 118 | 0.0 | 1.7 | 0.00 | 0.49 | 0.00 | 94 | 1002.0 |
| 20260508082947 | 41 | 85 | 0.0 | 1.7 | 0.00 | 0.49 | 0.00 | 93 | 1002.1 |
| 20260508082447 | 41 | 97 | 0.9 | 2.6 | 0.00 | 0.50 | 0.00 | 94 | 1002.2 |
| 20260508081946 | 41 | 230 | 1.7 | 2.6 | 0.00 | 0.50 | 0.00 | 94 | 1002.0 |
| 20260508081446 | 42 | 307 | 1.7 | 2.6 | 0.00 | 0.50 | 0.00 | 94 | 1002.2 |
| 20260508080947 | 42 | 352 | 0.0 | 2.6 | 0.00 | 0.50 | 0.00 | 94 | 1002.0 |
| 20260508080445 | 42 | 237 | 0.0 | 2.6 | 0.00 | 0.50 | 0.00 | 93 | 1002.3 |
| 20260508075944 | 42 | 110 | 0.0 | 0.9 | 0.00 | 0.50 | 0.00 | 93 | 1002.2 |
| 20260508075442 | 42 | 77 | 0.0 | 1.7 | 0.00 | 0.50 | 0.00 | 93 | 1002.3 |
| 20260508074940 | 42 | 223 | 0.0 | 1.7 | 0.00 | 0.50 | 0.00 | 93 | 1002.0 |
| 20260508074441 | 42 | 55 | 0.0 | 0.9 | 0.00 | 0.50 | 0.00 | 93 | 1002.1 |
| 20260508073939 | 42 | 125 | 0.0 | 0.9 | 0.00 | 0.50 | 0.00 | 93 | 1002.3 |
| 20260508072939 | 42 | 268 | 0.0 | 1.7 | 0.00 | 0.50 | 0.00 | 93 | 1002.1 |
| 20260508072438 | 42 | 184 | 0.0 | 1.7 | 0.00 | 0.50 | 0.00 | 93 | 1002.4 |
| 20260508070933 | 43 | 57 | 0.9 | 1.7 | 0.00 | 0.51 | 0.00 | 91 | 1002.1 |
| 20260508070432 | 43 | 117 | 0.0 | 1.7 | 0.00 | 0.51 | 0.00 | 91 | 1002.2 |
| 20260508065433 | 43 | 160 | 0.0 | 1.7 | 0.00 | 0.51 | 0.00 | 90 | 1002.3 |
| 20260508064932 | 44 | 111 | 1.7 | 2.6 | 0.00 | 0.51 | 0.00 | 89 | 1002.4 |
| 20260508063939 | 45 | 279 | 1.7 | 2.6 | 0.00 | 0.51 | 0.00 | 87 | 1002.5 |
| 20260508062927 | 45 | 117 | 0.0 | 1.7 | 0.00 | 0.51 | 0.00 | 86 | 1002.4 |
| 20260508062427 | 45 | 228 | 0.0 | 2.6 | 0.00 | 0.51 | 0.00 | 86 | 1002.2 |
| 20260508061426 | 46 | 269 | 1.7 | 4.3 | 0.00 | 0.51 | 0.00 | 85 | 1002.0 |
| 20260508060926 | 46 | 243 | 2.6 | 4.3 | 0.00 | 0.51 | 0.00 | 85 | 1002.4 |
| 20260508060426 | 46 | 242 | 1.7 | 4.3 | 0.00 | 0.51 | 0.00 | 86 | 1002.6 |
| 20260508055923 | 44 | 242 | 0.9 | 3.5 | 0.00 | 0.51 | 0.00 | 90 | 1002.6 |
| 20260508055424 | 44 | 194 | 0.9 | 2.6 | 0.00 | 0.51 | 0.00 | 91 | 1002.4 |
| 20260508054924 | 44 | 97 | 1.7 | 2.6 | 0.00 | 0.51 | 0.00 | 91 | 1002.4 |
| 20260508054425 | 44 | 208 | 0.0 | 2.6 | 0.00 | 0.51 | 0.00 | 91 | 1002.4 |
| 20260508053925 | 44 | 190 | 0.9 | 2.6 | 0.00 | 0.51 | 0.00 | 90 | 1002.3 |
| 20260508053422 | 44 | 108 | 0.9 | 2.6 | 0.00 | 0.51 | 0.00 | 90 | 1002.3 |
| 20260508052925 | 45 | 101 | 1.7 | 2.6 | 0.00 | 0.51 | 0.00 | 89 | 1002.2 |
| 20260508052423 | 45 | 182 | 0.0 | 3.5 | 0.00 | 0.51 | 0.00 | 88 | 1002.4 |
| 20260508051924 | 45 | 257 | 1.7 | 4.3 | 0.00 | 0.51 | 0.00 | 88 | 1002.4 |
| 20260508051423 | 45 | 300 | 2.6 | 4.3 | 0.00 | 0.51 | 0.00 | 88 | 1002.6 |
| 20260508050921 | 45 | 265 | 2.6 | 3.5 | 0.00 | 0.52 | 0.00 | 88 | 1002.7 |
| 20260508050421 | 45 | 257 | 1.7 | 6.1 | 0.00 | 0.52 | 0.00 | 88 | 1002.6 |
| 20260508045421 | 45 | 234 | 2.6 | 4.3 | 0.00 | 0.54 | 0.00 | 88 | 1002.6 |
| 20260508044919 | 45 | 263 | 2.6 | 5.2 | 0.00 | 0.54 | 0.00 | 89 | 1002.6 |
| 20260508044419 | 45 | 300 | 3.5 | 5.2 | 0.00 | 0.54 | 0.00 | 89 | 1002.5 |
| 20260508043418 | 45 | 272 | 1.7 | 5.2 | 0.00 | 0.54 | 0.00 | 90 | 1002.7 |
| 20260508042917 | 44 | 248 | 1.7 | 5.2 | 0.00 | 0.54 | 0.00 | 91 | 1002.7 |
| 20260508042417 | 44 | 309 | 1.7 | 3.5 | 0.00 | 0.54 | 0.00 | 94 | 1002.9 |
| 20260508041930 | 43 | 189 | 0.0 | 3.5 | 0.00 | 0.56 | 0.00 | 94 | 1002.8 |
| 20260508041414 | 43 | 170 | 1.7 | 1.7 | 0.00 | 0.56 | 0.00 | 94 | 1002.6 |
| 20260508040912 | 43 | 161 | 0.0 | 1.7 | 0.00 | 0.57 | 0.00 | 94 | 1002.7 |
| 20260508040411 | 43 | 148 | 0.0 | 1.7 | 0.00 | 0.59 | 0.00 | 94 | 1002.6 |
| 20260508035910 | 43 | 222 | 1.7 | 2.6 | 0.00 | 0.59 | 0.00 | 94 | 1002.6 |
| 20260508035410 | 43 | 284 | 0.0 | 2.6 | 0.00 | 0.59 | 0.00 | 94 | 1002.8 |
| 20260508034408 | 43 | 299 | 0.0 | 0.9 | 0.00 | 0.59 | 0.00 | 94 | 1002.6 |
| 20260508033905 | 43 | 12 | 0.0 | 1.7 | 0.00 | 0.59 | 0.00 | 94 | 1002.7 |
| 20260508033353 | 43 | 120 | 0.0 | 1.7 | 0.00 | 0.59 | 0.00 | 94 | 1002.8 |
| 20260508032847 | 43 | 123 | 0.9 | 1.7 | 0.00 | 0.59 | 0.00 | 94 | 1002.5 |
| 20260508032345 | 43 | 51 | 0.0 | 1.7 | 0.00 | 0.59 | 0.00 | 93 | 1002.3 |
| 20260508031845 | 43 | 121 | 0.9 | 2.6 | 0.00 | 0.59 | 0.00 | 93 | 1002.0 |
| 20260508031345 | 44 | 184 | 0.9 | 2.6 | 0.00 | 0.59 | 0.00 | 94 | 1002.3 |
| 20260508030344 | 43 | 302 | 1.7 | 3.5 | 0.00 | 0.59 | 0.00 | 93 | 1002.5 |
| 20260508025340 | 44 | 330 | 0.0 | 1.7 | 0.00 | 0.59 | 0.59 | 92 | 1002.4 |
| 20260508024839 | 44 | 205 | 0.0 | 1.7 | 0.00 | 0.59 | 0.59 | 91 | 1002.6 |
| 20260508024339 | 44 | 187 | 0.0 | 0.9 | 0.00 | 0.59 | 0.59 | 90 | 1002.5 |
| 20260508023839 | 45 | 117 | 0.9 | 1.7 | 0.00 | 0.59 | 0.59 | 89 | 1002.5 |
| 20260508023339 | 45 | 234 | 0.9 | 1.7 | 0.00 | 0.59 | 0.59 | 90 | 1002.6 |
| 20260508022838 | 45 | 311 | 0.0 | 1.7 | 0.00 | 0.59 | 0.59 | 91 | 1002.6 |
| 20260508022335 | 45 | 257 | 0.0 | 1.7 | 0.00 | 0.59 | 0.59 | 92 | 1002.8 |
| 20260508021834 | 45 | 9 | 0.0 | 1.7 | 0.00 | 0.59 | 0.59 | 92 | 1002.6 |
| 20260508021336 | 45 | 6 | 0.9 | 1.7 | 0.00 | 0.59 | 0.59 | 92 | 1002.6 |
| 20260508020830 | 45 | 49 | 0.9 | 1.7 | 0.00 | 0.59 | 0.59 | 91 | 1002.7 |
| 20260508020329 | 46 | 58 | 1.7 | 1.7 | 0.00 | 0.59 | 0.59 | 89 | 1002.6 |
| 20260508015825 | 46 | 104 | 0.0 | 0.9 | 0.00 | 0.59 | 0.59 | 87 | 1002.7 |
| 20260508015326 | 46 | 22 | 0.0 | 0.9 | 0.00 | 0.59 | 0.59 | 88 | 1002.6 |
| 20260508013323 | 47 | 284 | 0.0 | 1.7 | 0.00 | 0.59 | 0.59 | 87 | 1002.5 |
| 20260508012821 | 47 | 255 | 0.0 | 1.7 | 0.00 | 0.59 | 0.59 | 87 | 1002.7 |
| 20260508012320 | 47 | 304 | 0.0 | 1.7 | 0.00 | 0.59 | 0.59 | 87 | 1002.8 |
| 20260508011817 | 47 | 299 | 0.0 | 1.7 | 0.00 | 0.59 | 0.59 | 87 | 1002.7 |
| 20260508011317 | 47 | 292 | 0.0 | 1.7 | 0.00 | 0.59 | 0.59 | 86 | 1002.4 |
| 20260508010816 | 48 | 122 | 0.0 | 0.9 | 0.00 | 0.59 | 0.59 | 85 | 1002.6 |
| 20260508010315 | 48 | 72 | 0.9 | 1.7 | 0.00 | 0.59 | 0.59 | 85 | 1002.4 |
| 20260508005815 | 48 | 272 | 0.0 | 2.6 | 0.00 | 0.59 | 0.59 | 84 | 1002.6 |
| 20260508005314 | 48 | 177 | 0.0 | 2.6 | 0.00 | 0.59 | 0.59 | 84 | 1002.4 |
| 20260508004306 | 49 | 276 | 1.7 | 3.5 | 0.00 | 0.59 | 0.59 | 83 | 1002.3 |
| 20260508003805 | 49 | 253 | 0.9 | 4.3 | 0.00 | 0.59 | 0.59 | 83 | 1002.4 |
| 20260508003305 | 49 | 293 | 0.9 | 4.3 | 0.00 | 0.59 | 0.59 | 82 | 1002.2 |
| 20260508002306 | 49 | 239 | 2.6 | 5.2 | 0.00 | 0.59 | 0.59 | 82 | 1002.3 |
| 20260508001803 | 50 | 307 | 0.9 | 5.2 | 0.00 | 0.59 | 0.59 | 81 | 1002.4 |
| 20260508001301 | 50 | 248 | 3.5 | 7.0 | 0.00 | 0.59 | 0.59 | 81 | 1002.4 |
| 20260508000801 | 50 | 232 | 2.6 | 7.0 | 0.00 | 0.59 | 0.59 | 81 | 1002.2 |
| 20260508000258 | 50 | 230 | 2.6 | 9.6 | 0.00 | 0.59 | 0.59 | 81 | 1002.0 |
| 20260507235757 | 50 | 270 | 4.3 | 9.6 | 0.00 | 0.59 | 0.59 | 81 | 1002.1 |
| 20260507235257 | 51 | 230 | 4.3 | 7.8 | 0.00 | 0.59 | 0.59 | 80 | 1002.0 |
| 20260507234757 | 51 | 249 | 3.5 | 8.7 | 0.00 | 0.59 | 0.59 | 80 | 1002.2 |
| 20260507234255 | 51 | 235 | 4.3 | 8.7 | 0.00 | 0.59 | 0.59 | 80 | 1001.9 |
| 20260507233254 | 51 | 246 | 5.2 | 10.4 | 0.00 | 0.59 | 0.59 | 79 | 1002.2 |
| 20260507232753 | 51 | 247 | 6.1 | 7.8 | 0.00 | 0.59 | 0.59 | 79 | 1001.9 |
| 20260507231753 | 52 | 231 | 5.2 | 11.3 | 0.00 | 0.59 | 0.59 | 77 | 1001.8 |
| 20260507230249 | 53 | 282 | 3.5 | 10.4 | 0.00 | 0.59 | 0.59 | 75 | 1001.2 |
| 20260507225747 | 54 | 225 | 6.1 | 9.6 | 0.00 | 0.59 | 0.59 | 73 | 1001.3 |
| 20260507225245 | 54 | 238 | 3.5 | 9.6 | 0.00 | 0.59 | 0.59 | 72 | 1001.5 |
| 20260507224746 | 55 | 307 | 3.5 | 9.6 | 0.00 | 0.59 | 0.59 | 72 | 1001.3 |
| 20260507224244 | 55 | 241 | 3.5 | 10.4 | 0.00 | 0.59 | 0.59 | 70 | 1001.3 |
| 20260507223743 | 56 | 221 | 7.0 | 10.4 | 0.00 | 0.59 | 0.59 | 67 | 1001.5 |
| 20260507223256 | 57 | 253 | 5.2 | 9.6 | 0.00 | 0.59 | 0.59 | 64 | 1001.6 |
| 20260507222754 | 57 | 203 | 4.3 | 9.6 | 0.00 | 0.59 | 0.59 | 62 | 1001.3 |
| 20260507222252 | 57 | 283 | 4.3 | 7.8 | 0.00 | 0.59 | 0.59 | 58 | 1001.2 |
| 20260507221738 | 58 | 282 | 2.6 | 7.0 | 0.00 | 0.59 | 0.59 | 58 | 1001.4 |
| 20260507221234 | 58 | 295 | 4.3 | 8.7 | 0.00 | 0.59 | 0.59 | 57 | 1001.3 |
| 20260507220735 | 58 | 311 | 3.5 | 8.7 | 0.00 | 0.59 | 0.59 | 56 | 1001.2 |
| 20260507220230 | 58 | 291 | 6.1 | 10.4 | 0.00 | 0.59 | 0.59 | 56 | 1001.3 |
| 20260507215732 | 58 | 290 | 4.3 | 11.3 | 0.00 | 0.59 | 0.59 | 57 | 1001.5 |
| 20260507215230 | 58 | 311 | 5.2 | 11.3 | 0.00 | 0.59 | 0.59 | 57 | 1001.2 |
| 20260507214731 | 59 | 269 | 5.2 | 11.3 | 0.00 | 0.59 | 0.59 | 59 | 1001.4 |
| 20260507214230 | 58 | 259 | 4.3 | 11.3 | 0.00 | 0.59 | 0.59 | 59 | 1001.3 |
| 20260507213231 | 59 | 297 | 4.3 | 8.7 | 0.00 | 0.59 | 0.59 | 58 | 1001.3 |
| 20260507212229 | 59 | 266 | 4.3 | 10.4 | 0.00 | 0.59 | 0.59 | 59 | 1001.3 |
| 20260507211729 | 59 | 274 | 2.6 | 10.4 | 0.00 | 0.59 | 0.59 | 61 | 1001.2 |
| 20260507210727 | 59 | 217 | 5.2 | 10.4 | 0.00 | 0.59 | 0.59 | 57 | 1001.3 |
| 20260507210227 | 59 | 253 | 4.3 | 11.3 | 0.00 | 0.59 | 0.59 | 62 | 1001.5 |
| 20260507205727 | 59 | 262 | 5.2 | 11.3 | 0.00 | 0.59 | 0.59 | 59 | 1001.3 |
| 20260507205227 | 58 | 279 | 3.5 | 11.3 | 0.00 | 0.59 | 0.59 | 63 | 1000.9 |
| 20260507204728 | 58 | 241 | 3.5 | 11.3 | 0.00 | 0.59 | 0.59 | 62 | 1001.0 |
| 20260507204227 | 58 | 203 | 3.5 | 11.3 | 0.00 | 0.59 | 0.59 | 63 | 1001.1 |
| 20260507203727 | 59 | 243 | 5.2 | 9.6 | 0.00 | 0.59 | 0.59 | 60 | 1001.0 |
| 20260507203224 | 59 | 283 | 2.6 | 10.4 | 0.00 | 0.59 | 0.59 | 63 | 1001.1 |
| 20260507202723 | 58 | 233 | 2.6 | 10.4 | 0.00 | 0.59 | 0.59 | 63 | 1000.8 |
| 20260507201733 | 59 | 238 | 1.7 | 11.3 | 0.00 | 0.59 | 0.59 | 60 | 1001.1 |
| 20260507201221 | 58 | 272 | 3.5 | 12.2 | 0.00 | 0.59 | 0.59 | 67 | 1001.1 |
| 20260507200718 | 58 | 256 | 7.8 | 12.2 | 0.00 | 0.59 | 0.59 | 65 | 1001.0 |
| 20260507200218 | 58 | 260 | 7.8 | 11.3 | 0.00 | 0.59 | 0.59 | 69 | 1000.9 |
| 20260507195718 | 59 | 240 | 3.5 | 10.4 | 0.00 | 0.59 | 0.59 | 67 | 1001.1 |
| 20260507194709 | 58 | 252 | 10.4 | 13.0 | 0.00 | 0.59 | 0.59 | 68 | 1001.2 |
| 20260507194205 | 58 | 187 | 6.1 | 11.3 | 0.00 | 0.59 | 0.59 | 72 | 1001.2 |
| 20260507193704 | 57 | 205 | 2.6 | 9.6 | 0.00 | 0.59 | 0.59 | 73 | 1001.0 |
| 20260507193205 | 58 | 237 | 6.1 | 9.6 | 0.00 | 0.59 | 0.59 | 71 | 1001.2 |
| 20260507192703 | 57 | 262 | 6.1 | 13.0 | 0.00 | 0.59 | 0.59 | 74 | 1001.0 |
| 20260507192201 | 57 | 253 | 7.8 | 13.0 | 0.00 | 0.59 | 0.59 | 72 | 1001.1 |
| 20260507191658 | 57 | 251 | 5.2 | 13.0 | 0.00 | 0.59 | 0.59 | 76 | 1001.2 |
| 20260507191155 | 56 | 239 | 6.1 | 11.3 | 0.00 | 0.59 | 0.59 | 79 | 1001.1 |
| 20260507190153 | 56 | 243 | 4.3 | 10.4 | 0.00 | 0.59 | 0.59 | 78 | 1001.1 |
| 20260507185653 | 56 | 232 | 3.5 | 10.4 | 0.00 | 0.59 | 0.59 | 82 | 1001.3 |
| 20260507185153 | 56 | 212 | 0.9 | 8.7 | 0.00 | 0.59 | 0.59 | 83 | 1001.3 |
| 20260507184653 | 55 | 254 | 5.2 | 8.7 | 0.00 | 0.59 | 0.59 | 82 | 1001.0 |
| 20260507184153 | 54 | 260 | 4.3 | 7.8 | 0.00 | 0.59 | 0.59 | 84 | 1001.1 |
| 20260507183652 | 54 | 265 | 1.7 | 8.7 | 0.00 | 0.59 | 0.59 | 85 | 1001.1 |
| 20260507183152 | 54 | 258 | 7.0 | 8.7 | 0.00 | 0.59 | 0.59 | 85 | 1001.3 |
| 20260507182653 | 54 | 182 | 2.6 | 4.3 | 0.00 | 0.59 | 0.59 | 86 | 1001.0 |
| 20260507181655 | 54 | 220 | 2.6 | 7.0 | 0.00 | 0.59 | 0.59 | 87 | 1001.6 |
| 20260507181203 | 53 | 283 | 3.5 | 7.8 | 0.00 | 0.59 | 0.59 | 84 | 1001.5 |
| 20260507180646 | 53 | 231 | 2.6 | 7.8 | 0.00 | 0.59 | 0.59 | 86 | 1001.7 |
| 20260507180144 | 53 | 263 | 3.5 | 7.8 | 0.00 | 0.59 | 0.59 | 86 | 1001.5 |
| 20260507175645 | 53 | 249 | 4.3 | 7.8 | 0.00 | 0.59 | 0.59 | 85 | 1001.7 |
| 20260507175141 | 53 | 244 | 2.6 | 6.1 | 0.00 | 0.59 | 0.59 | 86 | 1001.7 |
| 20260507174640 | 53 | 261 | 4.3 | 6.1 | 0.00 | 0.59 | 0.59 | 89 | 1001.7 |
| 20260507174139 | 52 | 266 | 3.5 | 7.8 | 0.00 | 0.59 | 0.59 | 89 | 1001.6 |
| 20260507173134 | 52 | 294 | 5.2 | 8.7 | 0.00 | 0.59 | 0.59 | 89 | 1001.6 |
| 20260507172132 | 52 | 197 | 3.5 | 10.4 | 0.00 | 0.59 | 0.59 | 90 | 1001.8 |
| 20260507171631 | 51 | 247 | 5.2 | 10.4 | 0.00 | 0.59 | 0.59 | 89 | 1001.9 |
| 20260507171128 | 52 | 272 | 3.5 | 7.8 | 0.00 | 0.59 | 0.59 | 91 | 1001.8 |
| 20260507170629 | 52 | 248 | 3.5 | 7.8 | 0.00 | 0.59 | 0.59 | 94 | 1001.9 |
| 20260507170125 | 51 | 234 | 5.2 | 6.1 | 0.00 | 0.59 | 0.59 | 93 | 1002.0 |
| 20260507165624 | 51 | 263 | 1.7 | 6.1 | 0.00 | 0.59 | 0.59 | 94 | 1001.4 |
| 20260507165123 | 50 | 206 | 1.7 | 7.8 | 0.00 | 0.59 | 0.59 | 92 | 1001.4 |
| 20260507163617 | 50 | 294 | 2.6 | 7.0 | 0.02 | 0.59 | 0.59 | 95 | 1001.6 |
| 20260507163109 | 49 | 233 | 2.6 | 11.3 | 0.02 | 0.59 | 0.59 | 95 | 1001.6 |
| 20260507162607 | 49 | 255 | 5.2 | 11.3 | 0.02 | 0.59 | 0.59 | 95 | 1002.5 |
| 20260507162104 | 49 | 264 | 4.3 | 12.2 | 0.03 | 0.59 | 0.59 | 94 | 1002.4 |
| 20260507161104 | 50 | 265 | 11.3 | 14.8 | 0.03 | 0.59 | 0.59 | 94 | 1002.6 |
| 20260507160602 | 51 | 286 | 10.4 | 13.9 | 0.05 | 0.59 | 0.59 | 96 | 1002.3 |
| 20260507160110 | 52 | 240 | 3.5 | 10.4 | 0.05 | 0.59 | 0.59 | 96 | 1000.9 |
| 20260507155600 | 52 | 248 | 7.8 | 10.4 | 0.06 | 0.59 | 0.59 | 96 | 1001.6 |
| 20260507154557 | 52 | 253 | 4.3 | 9.6 | 0.08 | 0.59 | 0.59 | 97 | 1000.9 |
| 20260507153554 | 52 | 200 | 3.5 | 10.4 | 0.08 | 0.56 | 0.56 | 97 | 1001.8 |
| 20260507153053 | 52 | 262 | 5.2 | 10.4 | 0.09 | 0.56 | 0.56 | 97 | 1002.3 |
| 20260507152555 | 53 | 262 | 5.2 | 8.7 | 0.09 | 0.56 | 0.56 | 97 | 1002.2 |
| 20260507152050 | 53 | 244 | 3.5 | 7.8 | 0.09 | 0.55 | 0.55 | 97 | 1001.8 |
| 20260507151550 | 53 | 246 | 3.5 | 7.8 | 0.11 | 0.55 | 0.55 | 97 | 1001.7 |
| 20260507151045 | 53 | 258 | 0.0 | 5.2 | 0.11 | 0.55 | 0.55 | 97 | 1001.6 |
| 20260507145543 | 53 | 233 | 3.5 | 5.2 | 0.15 | 0.53 | 0.53 | 97 | 1002.0 |
| 20260507145042 | 53 | 260 | 2.6 | 5.2 | 0.13 | 0.51 | 0.51 | 97 | 1002.1 |
| 20260507143539 | 53 | 232 | 1.7 | 3.5 | 0.18 | 0.48 | 0.48 | 97 | 1002.1 |
| 20260507143039 | 53 | 34 | 0.9 | 4.3 | 0.18 | 0.47 | 0.47 | 97 | 1001.9 |
| 20260507142033 | 52 | 224 | 1.7 | 5.2 | 0.21 | 0.46 | 0.46 | 97 | 1001.8 |
| 20260507141031 | 52 | 37 | 0.0 | 3.5 | 0.20 | 0.43 | 0.44 | 97 | 1002.2 |
| 20260507140531 | 52 | 303 | 0.0 | 3.5 | 0.20 | 0.42 | 0.42 | 97 | 1002.1 |
| 20260507140030 | 52 | 308 | 0.0 | 3.5 | 0.20 | 0.41 | 0.41 | 97 | 1002.7 |
| 20260507135531 | 52 | 293 | 2.6 | 4.3 | 0.20 | 0.38 | 0.38 | 97 | 1002.8 |
| 20260507135030 | 52 | 275 | 3.5 | 4.3 | 0.23 | 0.37 | 0.37 | 97 | 1002.9 |
| 20260507134527 | 52 | 299 | 3.5 | 4.3 | 0.20 | 0.34 | 0.35 | 96 | 1002.6 |
| 20260507134028 | 52 | 256 | 3.5 | 5.2 | 0.21 | 0.33 | 0.33 | 96 | 1003.0 |
| 20260507133525 | 52 | 266 | 2.6 | 5.2 | 0.19 | 0.30 | 0.30 | 96 | 1002.9 |
| 20260507133022 | 52 | 257 | 3.5 | 6.1 | 0.18 | 0.29 | 0.29 | 96 | 1002.8 |
| 20260507132520 | 52 | 243 | 2.6 | 7.8 | 0.16 | 0.26 | 0.27 | 96 | 1002.8 |
| 20260507132031 | 53 | 234 | 3.5 | 7.8 | 0.14 | 0.25 | 0.25 | 95 | 1003.3 |
| 20260507131512 | 53 | 234 | 3.5 | 9.6 | 0.13 | 0.24 | 0.24 | 95 | 1003.5 |
| 20260507131026 | 53 | 254 | 6.1 | 10.4 | 0.12 | 0.23 | 0.23 | 95 | 1003.4 |
| 20260507130511 | 54 | 240 | 7.8 | 10.4 | 0.11 | 0.22 | 0.22 | 95 | 1003.4 |
| 20260507130009 | 54 | 248 | 5.2 | 11.3 | 0.09 | 0.20 | 0.20 | 95 | 1003.6 |
| 20260507125508 | 54 | 276 | 3.5 | 13.0 | 0.06 | 0.17 | 0.17 | 95 | 1003.7 |
| 20260507125004 | 55 | 256 | 9.6 | 17.4 | 0.04 | 0.15 | 0.15 | 94 | 1003.6 |
| 20260507124504 | 55 | 253 | 7.8 | 17.4 | 0.02 | 0.13 | 0.13 | 93 | 1003.6 |
| 20260507124004 | 55 | 247 | 15.6 | 17.4 | 0.00 | 0.11 | 0.12 | 93 | 1003.3 |
| 20260507123503 | 55 | 264 | 6.1 | 12.2 | 0.00 | 0.11 | 0.11 | 92 | 1003.2 |
| 20260507123003 | 55 | 233 | 6.1 | 7.8 | 0.00 | 0.11 | 0.11 | 92 | 1003.0 |
| 20260507122501 | 55 | 222 | 4.3 | 7.8 | 0.00 | 0.11 | 0.11 | 92 | 1002.9 |
| 20260507121959 | 56 | 253 | 2.6 | 7.8 | 0.01 | 0.11 | 0.11 | 92 | 1002.9 |
| 20260507121459 | 56 | 239 | 3.5 | 9.6 | 0.01 | 0.11 | 0.11 | 93 | 1002.8 |
| 20260507120957 | 55 | 273 | 0.0 | 9.6 | 0.01 | 0.11 | 0.11 | 93 | 1002.6 |
| 20260507120453 | 56 | 186 | 2.6 | 5.2 | 0.01 | 0.11 | 0.11 | 93 | 1002.5 |
| 20260507115952 | 56 | 160 | 2.6 | 7.0 | 0.01 | 0.11 | 0.11 | 93 | 1002.4 |
| 20260507114950 | 56 | 247 | 6.1 | 11.3 | 0.01 | 0.11 | 0.11 | 93 | 1002.8 |
| 20260507113943 | 56 | 174 | 0.0 | 7.8 | 0.01 | 0.11 | 0.11 | 93 | 1003.0 |
| 20260507113439 | 56 | 254 | 4.3 | 7.8 | 0.01 | 0.11 | 0.11 | 93 | 1002.5 |
| 20260507112939 | 56 | 179 | 2.6 | 7.8 | 0.01 | 0.11 | 0.11 | 93 | 1002.7 |
| 20260507112438 | 56 | 171 | 1.7 | 7.8 | 0.01 | 0.11 | 0.11 | 92 | 1002.9 |
| 20260507111934 | 56 | 86 | 7.8 | 7.8 | 0.00 | 0.09 | 0.09 | 91 | 1002.7 |
| 20260507111432 | 56 | 86 | 7.8 | 7.8 | 0.00 | 0.09 | 0.09 | 91 | 1003.2 |
| 20260507110928 | 56 | 86 | 7.8 | 7.8 | 0.00 | 0.09 | 0.09 | 90 | 1003.5 |
| 20260507110425 | 56 | 86 | 7.8 | 7.8 | 0.00 | 0.09 | 0.09 | 90 | 1003.4 |
| 20260507105926 | 57 | 86 | 7.8 | 7.8 | 0.00 | 0.09 | 0.09 | 90 | 1003.3 |
| 20260507105425 | 57 | 86 | 7.8 | 7.8 | 0.00 | 0.09 | 0.09 | 90 | 1003.2 |
| 20260507103922 | 57 | 86 | 7.8 | 7.8 | 0.00 | 0.09 | 0.09 | 90 | 1002.6 |
| 20260507103410 | 57 | 86 | 7.8 | 7.8 | 0.00 | 0.09 | 0.09 | 90 | 1002.3 |
| 20260507102908 | 57 | 86 | 7.8 | 7.8 | 0.00 | 0.09 | 0.09 | 90 | 1002.2 |
| 20260507102407 | 57 | 86 | 7.8 | 7.8 | 0.00 | 0.09 | 0.09 | 90 | 1002.2 |
| 20260507101908 | 57 | 86 | 7.8 | 7.8 | 0.00 | 0.09 | 0.09 | 91 | 1002.5 |
| 20260507101404 | 57 | 86 | 7.8 | 7.8 | 0.00 | 0.09 | 0.09 | 92 | 1002.4 |
| 20260507100903 | 57 | 86 | 7.8 | 7.8 | 0.00 | 0.09 | 0.09 | 92 | 1002.2 |